sat.trackr.live / text

‹ back to catalog

STARLINK-5785

NORAD 56031 · 2023-042AX

PAYLOAD ACTIVE UNKNOWN

§ Identity

Operator
Country
US
Launch date
2023-03-24
Launch site
AFETR
Launch vehicle
Mass (kg)
RCS (m²)

Purposes: comms

External: N2YO · Heavens-Above · Gunter

§ Orbital elements

Epoch: 2026-09-20T18:37:28.797600Z

Period
94.27 min
Inclination
43.0043°
Eccentricity
0.0001300
Mean motion
15.27572455 rev/d
Perigee alt
482.2 km
Apogee alt
484.0 km
Semi-major
6,861.2 km
B*
2.1173e-5
RAAN
23.2894°
Arg perigee
273.9495°
Mean anomaly
86.1208°
Rev number
19,287

§ Raw data

STARLINK-57851 56031U 23042AX  26263.77602775  .00000320  00000+0  21173-4 0  99982 56031  43.0043  23.2894 0001300 273.9495  86.1208 15.27572455192877

JSON: /api/v1/satellites/56031 · /tle

For live sub-satellite position, see the globe view (requires WebGL).

§ Visibility from observer

Set your observer location to see the next 7 days of passes ≥ 10°. The values pass through the URL so the page stays shareable.

No JS? Fill the form by hand. The geolocation button needs JavaScript.